Regional Weather Roundup
Issued by NWS

Home | Current Version | Previous Version | Graphics & Text | Print | Product List | Glossary On
Versions: 1 2 3 4 5 6 7 8 9 10 11 12 13 14 15 16 17 18 19 20 21 22 23 24 25 26 27 28
000
ASUS45 KSLC 210110
RWRUT

UTAH REGIONAL WEATHER ROUNDUP
NATIONAL WEATHER SERVICE SALT LAKE CITY UT
700 PM MDT SUN APR 20 2014

UTZ001>011-023>025-210200-

NORTHERN UTAH

CITY           SKY/WX    TMP DP  RH WIND       PRES   REMARKS
HILL AFB       NOT AVBL
LOGAN          SUNNY     61  32  33 N7        30.14R
OGDEN          PTSUNNY   66  17  15 N5        30.13S
PROVO AIRPORT  PTSUNNY   64  37  36 NW14      30.12F
SALT LAKE CITY PTSUNNY   67  18  15 N9        30.14R
VERNAL         PTSUNNY   63  34  33 N12       30.13R
WENDOVER       MOSUNNY   68  18  14 E13       30.13S
HEBER CITY     MOSUNNY   64  25  22 W6        30.14S
WEST JORDAN    SUNNY     63  30  29 NW14      30.15S

$$

UTZ012>022-026-027-210200-

SOUTHERN UTAH

CITY           SKY/WX    TMP DP  RH WIND       PRES   REMARKS
BRYCE CANYON   PTSUNNY   59  29  31 NW13      30.24R
CEDAR CITY     PTSUNNY   66  33  29 S7        30.13F
MILFORD        CLOUDY    72  31  22 N8        30.09S
MOAB/CYNLANDS  PTSUNNY   68  38  33 N12       30.07R
PRICE          MOSUNNY   68  26  20 N14       30.13S
ST GEORGE      PTCLDY    84  32  15 W14       29.98F
KANAB            N/A     72  30  21 W7        30.12S

$$

REGIONAL REPORTS     COLORADO/ARIZONA

CITY           SKY/WX    TMP DP  RH WIND       PRES   REMARKS
CRAIG, CO      MOCLDY    56  38  50 E14       30.17F
GRAND JUNCTION PTCLDY    63  39  41 NE25      30.10S
RIFLE          LGT RAIN  54  42  64 W26G37    30.16R
MONTROSE       MOCLDY    65  33  30 W14G22    30.14R
CORTEZ         CLEAR     69  29  22 NW10      30.10R
PAGE, AZ       MOSUNNY   78  31  17 NE7       30.04S
GRAND CANYON   MOSUNNY   67  29  24 NW7       30.19S
KINGMAN        SUNNY     81  32  17 SW14      30.04S
FLAGSTAFF      PTSUNNY   57  37  47 CALM      30.23S

$$

REGIONAL REPORTS    NEVADA/IDAHO/WYOMING

CITY           SKY/WX    TMP DP  RH WIND       PRES   REMARKS
LAS VEGAS, NV  MOSUNNY   89  30  12 S8        29.89S
ELY            MOSUNNY   66  14  13 NW8       30.16S
ELKO           SUNNY     65  12  12 W10       30.17S
POCATELLO, ID  SUNNY     60  11  14 SW18      30.18S
BURLEY         PTSUNNY   58  16  19 W13G21    30.17F
EVANSTON, WY   PTSUNNY   55  15  20 W15       30.23R
ROCK SPRINGS   MOSUNNY   61  15  16 NW20G30   30.16R

$$



USA.gov is the U.S. government's official web portal to all federal, state and local government web resources and services.